Location: Casa Blanca
(33.9331°N, 117.4025°W)
Time: 15:15:06
(UTC+00:00)

Daily predictions for brighter satellites

Satellite Brightness Start Highest point End
(mag) Time Altitude Azimuth Time Altitude Azimuth Time Altitude Azimuth
ATLAS 5 CENTAUR R/B 3.3 12:20:01 23° SE 12:21:04 26° ESE 12:24:21 10° NE
Cosmos 1766 Rocket 4.4 12:18:37 10° SSE 12:22:46 46° E 12:26:55 10° NNE
Cosmos 1867 4.1 12:24:57 45° S 12:24:57 45° S 12:28:50 10° SSE
Cosmos 1241 Rocket 4.2 12:25:05 74° NW 12:25:37 83° WSW 12:31:49 10° SSE
Meteor 2-13 Rocket 4.3 12:22:52 10° S 12:28:59 83° W 12:35:06 10° N
BREEZE-M DEB 4.1 12:31:18 34° E 12:31:18 34° E 12:34:32 10° ENE
CENTAUR R/B 4.5 12:40:23 14° N 12:40:23 14° N 12:42:00 10° N
H-2A R/B 2.9 12:42:12 53° NE 12:42:54 67° E 12:46:40 10° S
COSMO-SKYMED 1 3.9 12:40:34 10° SE 12:44:35 39° ENE 12:48:37 10° N
Meteor 1-31 Rocket 3.7 12:41:16 10° NNE 12:45:03 48° E 12:48:50 10° S
Envisat 3.0 12:43:27 10° NNE 12:48:32 81° ESE 12:53:36 10° S
MOS 1-B Rocket 4.0 12:43:00 10° SSE 12:49:28 80° ENE 12:55:14 10° N
Cosmos 1174 4.1 12:51:49 45° SE 12:51:58 45° ESE 12:54:49 10° NE
Cosmos 1408 Rocket 4.5 12:50:47 10° SSE 12:54:55 48° E 12:59:03 10° NNE
CZ-4B R/B 4.2 12:53:35 10° NNE 12:58:04 79° E 13:02:30 10° S
Cosmos 2369 Rocket 3.7 13:03:39 19° NNW 13:03:39 19° NNW 13:05:42 10° N
Cosmos 1656 Rocket 4.3 13:05:31 31° NW 13:05:31 31° NW 13:09:28 10° N
ATLAS 3B R/B 2.8 13:01:02 10° SSW 13:07:25 71° ESE 13:14:05 10° NE
Landsat 5 4.3 13:04:40 10° SSE 13:09:05 56° ENE 13:13:28 10° N
Meteor 1-10 Rocket 4.5 13:06:47 10° N 13:12:19 69° E 13:17:50 10° SSE
DELTA 2 R/B (1) 4.0 13:10:34 31° WNW 13:12:45 47° N 13:18:05 10° ENE
SJ 16-02 1.6 13:09:14 10° S 13:13:35 71° ESE 13:17:56 10° NNE
CZ-2C R/B 2.6 13:11:39 10° SSE 13:17:09 84° WSW 13:22:34 10° NNW
Cosmos 1354 Rocket 4.2 13:12:45 10° SW 13:17:47 46° WNW 13:22:53 10° N
CBERS 1 LM4 rocket 4.4 13:13:06 10° N 13:18:00 63° WNW 13:23:04 10° SSW
Cosmos 1515 Rocket 4.2 13:15:21 10° N 13:19:38 55° E 13:23:51 10° SSE
FALCON 9 R/B 4.1 13:04:37 22° W 13:22:45 85° SSW 13:29:40 10° ESE
SL-19 R/B 4.4 13:20:01 10° S 13:25:28 53° WSW 13:30:55 10° NNW
Cosmos 2279 Rocket 4.0 13:22:51 10° NNW 13:28:53 58° W 13:34:55 10° S
Nadezhda 4 Rocket 3.9 13:25:43 10° S 13:31:51 85° W 13:38:06 10° N
Cosmos 1500 Rocket 3.8 13:28:05 10° S 13:32:31 76° E 13:36:59 10° N
SKYMED 2 3.7 13:28:20 10° S 13:32:34 53° W 13:36:49 10° NNW
Cosmos 921 Rocket 4.3 13:33:05 21° W 13:33:34 21° W 13:36:56 10° SW
USA 215 4.3 13:30:39 10° ESE 13:36:35 39° NE 13:42:33 10° NNW
ADEOS 3.5 13:35:18 10° N 13:40:29 65° WNW 13:45:37 10° SSW
Meteor PRIRODA 3.5 13:38:06 10° NNE 13:41:44 90° WNW 13:45:22 10° SSW
CZ-4B R/B 2.6 13:40:27 10° NNE 13:44:01 84° ESE 13:47:40 10° S
Cosmos 1805 Rocket 4.3 13:40:30 10° S 13:44:48 57° E 13:49:04 10° NNE
H-2A R/B 3.5 13:41:52 10° SE 13:45:47 38° ENE 13:49:50 10° N
SL-27 R/B 2.4 13:43:18 10° NNW 13:46:51 86° ENE 13:50:20 10° SSE
Cosmos 1812 4.3 13:47:07 15° W 13:47:14 15° W 13:49:30 10° SW
Meteor 2-15 4.4 13:41:29 10° NNW 13:47:28 63° W 13:53:24 10° S
Cosmos 1340 Rocket 2.7 13:45:25 10° SSW 13:49:17 61° W 13:53:14 10° N
Cosmos 1151 Rocket 4.3 13:47:00 14° NW 13:49:24 20° W 13:52:37 10° SW
Cosmos 1092 Rocket 4.2 13:43:39 10° S 13:49:51 76° E 13:56:09 10° N
SMAP 3.9 13:46:21 10° NNE 13:50:55 54° E 13:55:27 10° S
NOAA 11 4.3 13:51:45 10° N 13:57:03 52° WNW 14:02:20 10° SSW
SL-8 R/B 3.9 13:54:54 10° NW 13:59:36 69° NE 14:04:21 10° ESE
FAST Rocket 4.2 13:57:22 10° SSW 13:59:54 43° W 14:02:36 10° N
OAO 2 Rocket 3.9 13:55:11 10° WSW 14:00:17 59° SSE 14:05:17 10° E
CZ-2C R/B 3.0 13:56:01 10° N 14:00:55 60° WNW 14:06:04 10° SSW
ATLAS 5 CENTAUR R/B 2.7 14:02:52 10° W 14:05:35 19° NW 14:08:30 10° N
CZ-4B R/B 3.5 14:03:29 10° SE 14:06:20 27° ENE 14:09:10 10° NNE
H-2A R/B 3.7 14:02:31 10° NNE 14:07:05 38° E 14:11:40 10° SSE
Cosmos 773 Rocket 4.3 14:08:27 10° NNW 14:13:24 46° WSW 14:18:18 10° S
USA 32 4.0 14:09:55 10° N 14:15:09 78° W 14:20:23 10° S
Meteor 1-27 Rocket 4.0 14:11:56 10° NNW 14:17:24 49° W 14:22:57 10° SSW
BREEZE-M DEB (TANK) 4.4 14:07:33 10° W 14:18:07 30° NW 14:21:46 10° NNE
BREEZE-M DEB (TANK) 4.4 14:13:00 10° NW 14:23:54 33° WSW 14:27:55 10° S
CZ-3 R/B 2.8 14:16:06 10° WSW 14:26:26 39° S 14:30:30 10° ESE
